AV279 Weather Reports


Display with metric or nautical units.
time (UTC)temp
F
wind
direction
speed
MPH
gust
MPH
rain 1hr
in
rain 24hr
in
rain mn
in
humidity
%
barometer
mb
20260902223819 67 248 4.0 8.0 0.00 0.01 0.01 77 1018.1
20260902222850 67 225 6.0 12.0 0.00 0.01 0.01 77 1018.3
20260902221818 67 225 5.0 8.0 0.00 0.01 0.01 77 1018.2
20260902220819 67 225 6.0 9.0 0.00 0.01 0.01 76 1018.2
20260902215819 67 203 7.0 12.0 0.00 0.01 0.01 77 1018.4
20260902214851 67 225 4.0 7.0 0.00 0.01 0.01 77 1018.4
20260902213819 67 225 5.0 8.0 0.00 0.01 0.01 76 1018.3
20260902212819 67 225 3.0 6.0 0.00 0.01 0.01 76 1018.3
20260902211820 67 225 5.0 7.0 0.00 0.01 0.01 76 1018.5
20260902211015 66 270 3.0 5.0 0.00 0.01 0.01 76 1018.7
20260902205818 66 225 4.0 6.0 0.00 0.01 0.01 76 1018.5
20260902204840 66 248 6.0 9.0 0.00 0.01 0.01 76 1018.5
20260902203818 66 225 6.0 9.0 0.00 0.01 0.01 75 1018.6
20260902202819 66 225 7.0 12.0 0.00 0.01 0.01 75 1018.6
20260902202016 66 225 4.0 6.0 0.00 0.01 0.01 75 1018.7
20260902201020 67 225 4.0 6.0 0.00 0.01 0.01 74 1018.7
20260902200020 67 225 6.0 10.0 0.00 0.01 0.01 73 1018.7
20260902195020 67 225 4.0 7.0 0.00 0.01 0.01 73 1018.8
20260902194020 67 203 5.0 9.0 0.00 0.01 0.01 73 1018.9
20260902193020 67 248 4.0 9.0 0.00 0.01 0.01 72 1018.9
20260902192029 67 225 4.0 7.0 0.00 0.01 0.01 72 1018.8
20260902191039 67 203 4.0 7.0 0.00 0.01 0.01 71 1018.8
20260902190019 67 225 3.0 6.0 0.00 0.01 0.01 71 1018.6
20260902185019 67 225 4.0 7.0 0.00 0.01 0.01 71 1018.7
20260902184020 67 203 3.0 4.0 0.00 0.01 0.01 70 1018.8
20260902183020 67 225 5.0 7.0 0.00 0.01 0.01 70 1018.8
20260902182020 67 203 4.0 8.0 0.00 0.01 0.01 69 1018.7
20260902181020 67 225 4.0 6.0 0.00 0.01 0.01 69 1018.7
20260902180020 68 225 5.0 7.0 0.00 0.01 0.01 67 1018.7
20260902175020 68 225 5.0 7.0 0.00 0.01 0.01 67 1018.7
20260902174050 68 225 4.0 9.0 0.00 0.01 0.01 66 1018.7
20260902173020 69 225 3.0 7.0 0.00 0.01 0.01 67 1019.0
20260902172020 69 225 5.0 7.0 0.00 0.01 0.01 66 1018.9
20260902171020 69 225 5.0 8.0 0.00 0.01 0.01 66 1018.9
20260902170020 69 270 3.0 4.0 0.00 0.01 0.01 65 1019.1
20260902165020 69 270 3.0 5.0 0.00 0.01 0.01 65 1019.0
20260902164226 69 248 4.0 6.0 0.00 0.01 0.01 65 1019.1
20260902163341 70 180 4.0 11.0 0.00 0.01 0.01 66 1019.1
20260902162320 70 225 4.0 13.0 0.00 0.01 0.01 64 1019.3
20260902161320 70 270 6.0 14.0 0.00 0.01 0.01 66 1019.4
20260902160342 70 270 4.0 7.0 0.00 0.01 0.01 66 1019.4
20260902155340 70 248 5.0 10.0 0.00 0.01 0.01 66 1019.3
20260902154320 71 248 6.0 13.0 0.00 0.01 0.01 66 1019.5
20260902153320 71 270 4.0 10.0 0.00 0.01 0.01 66 1019.5
20260902152331 71 293 3.0 5.0 0.00 0.01 0.01 67 1019.5
20260902151403 71 225 5.0 10.0 0.00 0.01 0.01 68 1019.6
20260902150320 71 248 4.0 9.0 0.00 0.01 0.01 69 1019.7
20260902145341 71 225 3.0 6.0 0.00 0.01 0.01 69 1019.6
20260902144320 71 248 4.0 8.0 0.00 0.01 0.01 69 1019.7
20260902143330 71 225 5.0 10.0 0.00 0.01 0.01 69 1019.7
20260902142330 72 270 3.0 6.0 0.00 0.01 0.01 68 1019.8
20260902141320 71 248 2.0 4.0 0.00 0.01 0.01 71 1019.8
20260902140320 71 248 3.0 4.0 0.00 0.01 0.01 69 1019.9
20260902135320 71 248 3.0 6.0 0.00 0.01 0.01 70 1019.9
20260902134330 71 270 3.0 6.0 0.00 0.01 0.01 70 1019.8
20260902133330 71 270 2.0 3.0 0.00 0.01 0.01 71 1019.8
20260902132352 70 225 6.0 10.0 0.00 0.01 0.01 72 1019.9
20260902131330 69 180 5.0 9.0 0.00 0.01 0.01 73 1020.0
20260902130330 69 248 4.0 8.0 0.00 0.01 0.01 73 1020.0
20260902125320 70 248 3.0 6.0 0.00 0.01 0.01 73 1019.9
20260902124320 71 248 5.0 9.0 0.00 0.01 0.01 70 1020.0
20260902123319 71 270 2.0 3.0 0.00 0.01 0.01 73 1020.0
20260902122320 70 270 2.0 4.0 0.00 0.01 0.01 73 1019.9
20260902121319 70 248 5.0 7.0 0.00 0.01 0.01 75 1020.1
20260902120359 70 248 2.0 4.0 0.00 0.01 0.01 74 1020.1
20260902115330 70 270 3.0 4.0 0.00 0.01 0.01 72 1020.0
20260902114320 71 248 2.0 3.0 0.00 0.01 0.01 74 1020.1
20260902113320 71 158 2.0 5.0 0.00 0.01 0.01 75 1020.1
20260902112320 70 248 3.0 4.0 0.00 0.01 0.01 76 1020.3
20260902111320 70 203 2.0 4.0 0.00 0.01 0.01 79 1020.3
20260902110341 69 248 2.0 4.0 0.00 0.01 0.01 83 1020.2
20260902105331 68 270 2.0 6.0 0.00 0.01 0.01 86 1020.5
20260902104320 67 270 1.0 2.0 0.00 0.01 0.01 88 1020.5
20260902103331 66 270 2.0 3.0 0.00 0.01 0.01 89 1020.6
20260902102353 65 203 2.0 4.0 0.01 0.01 0.01 91 1020.7
20260902101319 64 203 2.0 4.0 0.01 0.01 0.01 91 1020.7
20260902100320 63 203 2.0 3.0 0.01 0.01 0.01 91 1020.8
20260902095319 63 225 1.0 2.0 0.01 0.01 0.01 90 1020.8
20260902094321 63 225 1.0 1.0 0.01 0.01 0.01 89 1020.9
20260902093319 63 0 1.0 1.0 0.01 0.01 0.01 86 1020.8
20260902092322 64 315 1.0 2.0 0.00 0.00 0.00 83 1020.9
20260902091518 64 248 4.0 6.0 0.00 0.00 0.00 83 1020.8
20260902090931 64 225 5.0 7.0 0.00 0.00 0.00 82 1020.7
20260902090117 64 248 3.0 6.0 0.00 0.00 0.00 83 1020.6
20260902085403 64 225 4.0 8.0 0.00 0.00 0.00 83 1020.5
20260902084420 64 225 6.0 8.0 0.00 0.00 0.00 84 1020.5
20260902083420 64 248 3.0 6.0 0.00 0.00 0.00 85 1020.4
20260902082454 64 248 4.0 6.0 0.00 0.00 0.00 87 1020.1
20260902081420 63 225 3.0 4.0 0.00 0.00 0.00 88 1019.9
20260902080430 63 225 3.0 6.0 0.00 0.00 0.00 88 1019.9
20260902075419 63 225 4.0 7.0 0.00 0.00 0.00 88 1019.9
20260902074430 63 203 3.0 6.0 0.00 0.00 0.00 88 1019.9
20260902073419 63 248 2.0 3.0 0.00 0.00 0.00 89 1019.9
20260902072421 63 203 2.0 4.0 0.00 0.00 0.00 89 1019.6
20260902071419 62 225 2.0 4.0 0.00 0.00 0.00 90 1019.7
20260902070419 61 225 3.0 5.0 0.00 0.00 0.00 91 1019.6
20260902065420 61 203 4.0 6.0 0.00 0.00 0.00 91 1019.7
20260902064628 60 225 2.0 4.0 0.00 0.00 0.00 92 1019.7
20260902063420 60 225 1.0 2.0 0.00 0.00 0.00 92 1019.6
20260902062419 60 225 2.0 5.0 0.00 0.00 0.00 92 1019.7
20260902061419 59 248 2.0 4.0 0.00 0.00 0.00 92 1019.7
20260902060454 59 225 3.0 4.0 0.00 0.00 0.00 92 1019.5
20260902055419 59 225 2.0 3.0 0.00 0.00 0.00 92 1019.6
20260902054430 58 203 1.0 2.0 0.00 0.00 0.00 92 1019.5
20260902053419 58 225 2.0 4.0 0.00 0.00 0.00 92 1019.4
20260902052451 58 203 1.0 2.0 0.00 0.00 0.00 92 1019.3
20260902051442 58 203 3.0 4.0 0.00 0.00 0.00 92 1019.2
20260902050420 58 203 1.0 2.0 0.00 0.00 0.00 92 1019.3
20260902045419 58 225 3.0 4.0 0.00 0.00 0.00 92 1019.3
20260902044451 58 225 3.0 6.0 0.00 0.00 0.00 92 1019.3
20260902043419 58 225 3.0 4.0 0.00 0.00 0.00 91 1019.2
20260902042509 59 225 2.0 4.0 0.00 0.00 0.00 91 1019.2
20260902041511 59 225 4.0 5.0 0.00 0.00 0.00 91 1019.2
20260902040440 59 248 2.0 2.0 0.00 0.00 0.00 91 1019.1
20260902035419 59 225 3.0 4.0 0.00 0.00 0.00 91 1019.1
20260902034421 59 225 2.0 3.0 0.00 0.00 0.00 91 1019.0
20260902033429 59 203 3.0 5.0 0.00 0.00 0.00 91 1019.1
20260902032500 58 225 3.0 4.0 0.00 0.00 0.00 91 1019.1
20260902031420 58 225 2.0 4.0 0.00 0.00 0.00 91 1019.1
20260902030430 58 225 3.0 4.0 0.00 0.00 0.00 91 1019.0
20260902025419 58 225 3.0 5.0 0.00 0.00 0.00 91 1019.2
20260902024433 59 225 3.0 4.0 0.00 0.00 0.00 91 1019.2
20260902023419 59 225 2.0 3.0 0.00 0.00 0.00 90 1019.2
20260902022440 59 225 2.0 3.0 0.00 0.00 0.00 90 1019.4
20260902021419 59 225 2.0 2.0 0.00 0.00 0.00 90 1019.4
20260902020419 59 225 2.0 4.0 0.00 0.01 0.00 90 1019.5
20260902015419 59 225 2.0 3.0 0.00 0.01 0.00 90 1019.5
20260902014419 59 225 2.0 4.0 0.00 0.01 0.00 90 1019.5
20260902013419 59 225 3.0 5.0 0.00 0.01 0.00 90 1019.5
20260902012452 59 225 3.0 4.0 0.00 0.01 0.00 90 1019.6
20260902011419 59 225 2.0 4.0 0.00 0.01 0.00 90 1019.6
20260902010431 59 225 2.0 4.0 0.00 0.01 0.00 89 1019.5
20260902005442 59 225 2.0 2.0 0.00 0.01 0.00 89 1019.7
20260902004420 59 203 1.0 3.0 0.00 0.01 0.00 89 1019.7
20260902003419 59 225 1.0 2.0 0.00 0.01 0.00 89 1019.7
20260902002418 59 225 2.0 3.0 0.00 0.01 0.00 89 1019.5
20260902001441 59 225 2.0 4.0 0.00 0.01 0.00 89 1019.6
20260902000453 59 203 1.0 3.0 0.00 0.01 0.00 88 1019.6
20260901235439 59 203 2.0 3.0 0.00 0.01 0.01 88 1019.5
20260901234441 59 180 3.0 4.0 0.00 0.01 0.01 88 1019.5
20260901233421 59 203 2.0 2.0 0.00 0.01 0.01 88 1019.9
20260901232419 59 225 3.0 5.0 0.00 0.01 0.01 88 1019.9
20260901231419 59 203 2.0 4.0 0.00 0.01 0.01 88 1020.0
20260901230420 58 203 2.0 3.0 0.00 0.01 0.01 88 1020.0
20260901225419 59 248 2.0 3.0 0.00 0.01 0.01 88 1020.0